Flag for Australia Weather past 2 weeks in Toowoomba, Queensland, Australia

Now
58 °F

Cool.


Feels Like: 57 °F
Forecast: 59 / 80 °F
Wind: 6 mph from Northeast

Location: Oakey Aerodrome

Current Time: Dec 23, 2014 at 5:32:18 AM

Latest Report: Dec 23, 2014 at 4:00 AM


Visibility: N/A

Pressure: 29.97 "Hg

Humidity: 90%

Dew point: 55 °F

Location of ToowoombaLocation

Historic Weather in Toowoomba — Graph

°F

Toowoomba temperature yesterday

Maximum temperature yesterday: 82 °F (at 4:00 PM)
Minimum temperature yesterday: 66 °F (at 3:00 AM)
Average temperature yesterday: 73 °F

Past Weeks' High & Low Weather Summary

 TemperatureHumidityPressure
High97 °F (Dec 17, 3:00 PM)97% (Dec 11, 1:00 PM)30.04 "Hg (Dec 11, 1:00 PM)
Low56 °F (Dec 14, 4:00 AM)21% (Dec 16, 3:00 PM)29.61 "Hg (Dec 17, 4:00 PM)
Average74 °F67%29.83 "Hg
* Reported Dec 8 4:00 AM — Dec 23 4:00 AM, Toowoomba, Weather by CustomWeather, © 2014

Note: Actual official high and low records may vary slightly from our data, if they occured in-between our weather recording intervals... More about our weather records

Advertising

Toowoomba weather history for previous 24 hours

 ConditionsComfort  
Time TempWeatherWind HumidityBarometerVisibility
4:00 AM
Dec 23
58 °FCool.6 mph90%29.97 "HgN/A
3:00 AM59 °FCool.6 mph88%29.96 "HgN/A
1:00 AM61 °FCool.6 mph86%29.98 "HgN/A
12:00 AM64 °FMild.8 mph79%30.00 "HgN/A
10:00 PM
Dec 22
68 °FMild.15 mph68%30.00 "HgN/A
9:00 PM70 °FMild.15 mph66%29.99 "HgN/A
7:00 PM75 °FMild.16 mph53%29.96 "HgN/A
6:00 PM79 °FWarm.15 mph43%29.93 "HgN/A
4:00 PM82 °FPleasantly warm.15 mph39%29.92 "HgN/A
3:00 PM82 °FOvercast.15 mph38%29.93 "HgN/A
1:00 PM81 °FWarm.9 mph48%29.98 "HgN/A
12:00 PM80 °FWarm.12 mph46%30.00 "HgN/A
10:00 AM76 °FMild.13 mph56%30.03 "HgN/A
9:00 AM74 °FOvercast.10 mph60%30.04 "HgN/A
7:00 AM68 °FMild.14 mph75%30.02 "HgN/A
6:00 AM67 °FMild.7 mph79%30.01 "HgN/A
Weather by CustomWeather, © 2014

See weather overviewHow to use our weather pages